Weather in Verkhniye Kularki

Russia / Zabaykalsky Krai     52°49′56″N   118°56′47″E
temp.,
°C
wind,
m/s
gust,
m/s
humid.,
%
clouds,
%
prec.,
mm/h
press.,
hPa
HPBL,
m
26 february, fri
fri2600:00−24s11840 0.0 103220
03:00−24e11844 0.0 103120
06:00−26ese118650 0.0 103320
09:00−21e128575 0.0 103183
12:00−16e2379100 0.0 1028344
15:00−13e3586100 0.1 1024589
18:00−15e3592100 0.1 1021302
21:00−15e3695100 0.4 1018310
27 february, sat
sat2700:00−15ene2595100 1.4 1016283
03:00−16ene2396100 3.2 1013195
06:00−17n1298100 1.0 1012138
09:00−19nnw2397100 1.9 1013246
12:00−16nw2390100 0.3 1014519
15:00−13wnw2583100 0.3 1015819
18:00−13wnw1395100 0.4 1018313
21:00−18wnw1288100 0.9 102226
28 february, sun
sun2800:00−23ssw118820 0.0 102620
03:00−25wsw129455 0.0 103020
06:00−28sw129548 0.0 103319
09:00−28sw129325 0.0 103527
12:00−21wsw23780 0.0 1035457
15:00−18w24692 0.0 10331163
18:00−19w369190 0.1 1034491
21:00−25wsw129295 0.2 103820
1 march, mon
mon100:00−28ssw129169 0.0 104019
03:00−30ssw129234 0.0 104119
06:00−30ssw129333 0.0 104019
09:00−27sw119667 0.0 104046
12:00−21wsw228698 0.0 1036396
15:00−18wsw238196 0.0 1032636
18:00−20ssw129691 0.1 103090
21:00−25s119777 0.1 103120
2 march, tue
tue200:00−23sse129261 0.0 103020
03:00−22se129980 0.2 102829
06:00−24sse1199100 0.3 102720
09:00−23sse1198100 0.4 102555
12:00−17sse1288100 0.3 1022412
15:00−14sw1287100 0.6 1018501
18:00−15n1196100 0.5 1017148
21:00−18nne1198100 1.4 101840